TimePDT,TemperatureF,Dew PointF,Humidity,Sea Level PressureIn,VisibilityMPH,Wind Direction,Wind SpeedMPH,Gust SpeedMPH,PrecipitationIn,Events,Conditions,WindDirDegrees,DateUTC
12:15 AM,62.6,57.2,82,29.91,10.0,North,5.8,-,N/A,,Overcast,360,2013-09-14 07:15:00
12:35 AM,62.6,57.2,82,29.91,10.0,NNW,4.6,-,N/A,,Overcast,340,2013-09-14 07:35:00
12:55 AM,62.6,57.2,82,29.90,10.0,North,8.1,-,N/A,,Overcast,360,2013-09-14 07:55:00
1:15 AM,62.6,57.2,82,29.90,10.0,NNW,5.8,-,N/A,,Overcast,340,2013-09-14 08:15:00
1:35 AM,62.6,57.2,82,29.90,10.0,North,6.9,-,N/A,,Overcast,350,2013-09-14 08:35:00
1:55 AM,62.6,57.2,82,29.90,10.0,NNW,5.8,-,N/A,,Overcast,340,2013-09-14 08:55:00
2:15 AM,62.6,57.2,82,29.90,10.0,NW,3.5,-,N/A,,Overcast,320,2013-09-14 09:15:00
2:35 AM,62.6,57.2,82,29.90,8.0,NNW,3.5,-,N/A,,Overcast,340,2013-09-14 09:35:00
2:55 AM,62.6,57.2,82,29.90,5.0,Calm,Calm,-,N/A,,Overcast,0,2013-09-14 09:55:00
3:15 AM,60.8,57.2,88,29.89,8.0,Calm,Calm,-,N/A,,Overcast,0,2013-09-14 10:15:00
3:35 AM,60.8,57.2,88,29.89,6.0,Calm,Calm,-,N/A,,Overcast,0,2013-09-14 10:35:00
3:55 AM,60.8,57.2,88,29.89,7.0,Calm,Calm,-,N/A,,Overcast,0,2013-09-14 10:55:00
4:15 AM,60.8,57.2,88,29.89,8.0,Calm,Calm,-,N/A,,Overcast,0,2013-09-14 11:15:00
4:35 AM,60.8,57.2,88,29.89,7.0,Calm,Calm,-,N/A,,Overcast,0,2013-09-14 11:35:00
4:55 AM,60.8,57.2,88,29.89,7.0,Calm,Calm,-,N/A,,Overcast,0,2013-09-14 11:55:00
5:15 AM,62.6,57.2,82,29.89,7.0,Calm,Calm,-,N/A,,Overcast,0,2013-09-14 12:15:00
5:35 AM,60.8,57.2,88,29.89,6.0,WNW,3.5,-,N/A,,Overcast,300,2013-09-14 12:35:00
5:55 AM,60.8,57.2,88,29.89,6.0,Calm,Calm,-,N/A,,Overcast,0,2013-09-14 12:55:00
6:15 AM,60.8,57.2,88,29.89,5.0,Calm,Calm,-,N/A,,Overcast,0,2013-09-14 13:15:00
6:35 AM,60.8,57.2,88,29.89,4.0,Calm,Calm,-,N/A,,Overcast,0,2013-09-14 13:35:00
6:55 AM,60.8,57.2,88,29.89,4.0,Calm,Calm,-,N/A,,Overcast,0,2013-09-14 13:55:00
7:15 AM,60.8,57.2,88,29.89,4.0,Calm,Calm,-,N/A,,Overcast,0,2013-09-14 14:15:00
7:35 AM,60.8,57.2,88,29.89,2.5,Calm,Calm,-,N/A,,Overcast,0,2013-09-14 14:35:00
7:55 AM,60.8,57.2,88,29.89,2.5,Calm,Calm,-,N/A,,Overcast,0,2013-09-14 14:55:00
8:15 AM,60.8,57.2,88,29.89,5.0,Calm,Calm,-,N/A,,Overcast,0,2013-09-14 15:15:00
8:35 AM,60.8,57.2,88,29.89,3.0,Calm,Calm,-,N/A,,Overcast,0,2013-09-14 15:35:00
8:55 AM,60.8,57.2,88,29.89,5.0,Calm,Calm,-,N/A,,Overcast,0,2013-09-14 15:55:00
9:15 AM,62.6,57.2,82,29.89,5.0,Calm,Calm,-,N/A,,Overcast,0,2013-09-14 16:15:00
9:35 AM,62.6,57.2,82,29.88,5.0,North,4.6,-,N/A,,Overcast,360,2013-09-14 16:35:00
9:55 AM,62.6,57.2,82,29.88,9.0,North,3.5,-,N/A,,Overcast,360,2013-09-14 16:55:00
10:15 AM,64.4,57.2,77,29.88,10.0,NNW,4.6,-,N/A,,Overcast,340,2013-09-14 17:15:00
10:35 AM,64.4,57.2,77,29.88,10.0,NNE,3.5,-,N/A,,Overcast,30,2013-09-14 17:35:00
10:55 AM,64.4,57.2,77,29.87,10.0,NNW,4.6,-,N/A,,Overcast,340,2013-09-14 17:55:00
11:15 AM,64.4,57.2,77,29.87,10.0,Calm,Calm,-,N/A,,Overcast,0,2013-09-14 18:15:00
11:35 AM,66.2,57.2,73,29.87,10.0,NNW,3.5,-,N/A,,Overcast,340,2013-09-14 18:35:00
11:55 AM,66.2,57.2,73,29.86,10.0,NNW,3.5,-,N/A,,Overcast,340,2013-09-14 18:55:00
12:15 PM,66.2,57.2,73,29.86,10.0,NW,3.5,-,N/A,,Overcast,310,2013-09-14 19:15:00
12:35 PM,66.2,57.2,73,29.85,10.0,NNW,4.6,-,N/A,,Overcast,330,2013-09-14 19:35:00
12:55 PM,66.2,57.2,73,29.85,10.0,NW,4.6,-,N/A,,Overcast,320,2013-09-14 19:55:00
1:15 PM,68.0,57.2,68,29.84,10.0,North,4.6,-,N/A,,Overcast,350,2013-09-14 20:15:00
1:35 PM,69.8,57.2,64,29.83,10.0,NW,6.9,-,N/A,,Overcast,310,2013-09-14 20:35:00
1:55 PM,69.8,59.0,68,29.83,10.0,North,4.6,-,N/A,,Overcast,10,2013-09-14 20:55:00
2:15 PM,71.6,59.0,64,29.82,10.0,West,3.5,-,N/A,,Partly Cloudy,280,2013-09-14 21:15:00
2:35 PM,71.6,59.0,64,29.81,10.0,NW,8.1,-,N/A,,Clear,310,2013-09-14 21:35:00
2:55 PM,73.4,60.8,65,29.80,10.0,NW,4.6,-,N/A,,Clear,320,2013-09-14 21:55:00
3:15 PM,73.4,60.8,65,29.80,10.0,WNW,4.6,-,N/A,,Clear,300,2013-09-14 22:15:00
3:35 PM,75.2,60.8,61,29.79,10.0,WNW,6.9,-,N/A,,Clear,300,2013-09-14 22:35:00
3:55 PM,75.2,60.8,61,29.78,10.0,NW,9.2,-,N/A,,Clear,310,2013-09-14 22:55:00
4:15 PM,75.2,60.8,61,29.77,10.0,NW,5.8,-,N/A,,Clear,310,2013-09-14 23:15:00
4:35 PM,75.2,60.8,61,29.77,10.0,WNW,8.1,-,N/A,,Clear,300,2013-09-14 23:35:00
4:55 PM,75.2,60.8,61,29.76,10.0,WNW,8.1,-,N/A,,Clear,300,2013-09-14 23:55:00
5:15 PM,75.2,60.8,61,29.76,10.0,NW,6.9,-,N/A,,Clear,310,2013-09-15 00:15:00
5:35 PM,75.2,60.8,61,29.76,10.0,WNW,6.9,-,N/A,,Clear,300,2013-09-15 00:35:00
5:55 PM,73.4,60.8,65,29.75,10.0,WNW,6.9,-,N/A,,Clear,300,2013-09-15 00:55:00
6:15 PM,73.4,60.8,65,29.75,10.0,NW,9.2,-,N/A,,Clear,310,2013-09-15 01:15:00
6:35 PM,73.4,60.8,65,29.75,10.0,WNW,8.1,-,N/A,,Clear,300,2013-09-15 01:35:00
6:55 PM,71.6,60.8,69,29.75,10.0,WNW,6.9,-,N/A,,Clear,300,2013-09-15 01:55:00
7:15 PM,71.6,60.8,69,29.75,10.0,NW,8.1,-,N/A,,Clear,310,2013-09-15 02:15:00
7:35 PM,69.8,60.8,73,29.76,10.0,NW,5.8,-,N/A,,Clear,310,2013-09-15 02:35:00
7:55 PM,69.8,60.8,73,29.76,10.0,NNW,4.6,-,N/A,,Clear,330,2013-09-15 02:55:00
8:15 PM,69.8,60.8,73,29.77,10.0,NNW,4.6,-,N/A,,Clear,330,2013-09-15 03:15:00
8:35 PM,68.0,60.8,78,29.77,10.0,North,3.5,-,N/A,,Clear,10,2013-09-15 03:35:00
8:55 PM,66.2,59.0,78,29.78,10.0,Calm,Calm,-,N/A,,Clear,0,2013-09-15 03:55:00
9:15 PM,66.2,60.8,83,29.78,10.0,NW,4.6,-,N/A,,Clear,310,2013-09-15 04:15:00
9:35 PM,66.2,59.0,78,29.78,10.0,Calm,Calm,-,N/A,,Clear,0,2013-09-15 04:35:00
9:55 PM,64.4,59.0,83,29.77,10.0,Calm,Calm,-,N/A,,Clear,0,2013-09-15 04:55:00
10:15 PM,64.4,59.0,83,29.77,10.0,Calm,Calm,-,N/A,,Clear,0,2013-09-15 05:15:00
10:35 PM,64.4,59.0,83,29.78,10.0,NNW,3.5,-,N/A,,Clear,330,2013-09-15 05:35:00
10:55 PM,64.4,59.0,83,29.78,10.0,Calm,Calm,-,N/A,,Clear,0,2013-09-15 05:55:00
11:15 PM,64.4,59.0,83,29.77,10.0,Calm,Calm,-,N/A,,Clear,0,2013-09-15 06:15:00
11:35 PM,62.6,59.0,88,29.77,10.0,Calm,Calm,-,N/A,,Clear,0,2013-09-15 06:35:00
11:55 PM,62.6,57.2,82,29.77,10.0,Calm,Calm,-,N/A,,Partly Cloudy,0,2013-09-15 06:55:00